This is the latest recevied weather packets stored in our database for station/object SR6WXP. If no packets are shown the sender has not sent any weather packets the latest 1 day(s).
| Time | Temp. | Humidity | Pressure | Rain* | Wind** | Luminosity | Snow |
|---|---|---|---|---|---|---|---|
| 1836274739 | 14.44° C | 33% | 999.4 hPa | - | 0.89 m/s, 115° | - | - |
| 1836274498 | 14.44° C | 33% | 999.4 hPa | - | 1.34 m/s, 120° | - | - |
| 1836274480 | 14.44° C | 33% | 999.4 hPa | - | 1.34 m/s, 115° | - | - |
| 1836274257 | 14.44° C | 33% | 999.5 hPa | - | 0.89 m/s, 123° | - | - |
| 1836274230 | 14.44° C | 33% | 999.4 hPa | - | 0.89 m/s, 129° | - | - |
| 1836274017 | 14.44° C | 33% | 999.5 hPa | - | 0.89 m/s, 118° | - | - |
| 1778028785 | 16.67° C | 60% | 981.9 hPa | - | 1.79 m/s, 144° | - | - |
| 1778028545 | 16.67° C | 60% | 981.9 hPa | - | 0.45 m/s, 156° | - | - |
| 1778028305 | 17.22° C | 59% | 981.9 hPa | - | 1.79 m/s, 147° | - | - |
| 1778028065 | 17.22° C | 59% | 981.8 hPa | - | 1.34 m/s, 142° | - | - |
| 1778027823 | 17.22° C | 59% | 981.8 hPa | - | 1.34 m/s, 147° | - | - |
| 1778027583 | 17.22° C | 58% | 981.7 hPa | - | 1.79 m/s, 128° | - | - |
| 1778027343 | 17.22° C | 58% | 981.7 hPa | - | 1.79 m/s, 120° | - | - |
| 1778027103 | 17.22° C | 58% | 981.8 hPa | - | 1.34 m/s, 135° | - | - |
| 1778026863 | 17.22° C | 58% | 981.9 hPa | - | 1.79 m/s, 146° | - | - |
| 1778026621 | 17.22° C | 57% | 981.9 hPa | - | 1.79 m/s, 136° | - | - |
| 1778026381 | 17.22° C | 57% | 981.9 hPa | - | 1.79 m/s, 169° | - | - |
| 1778026141 | 17.78° C | 57% | 981.9 hPa | - | 1.34 m/s, 156° | - | - |
| 1778025901 | 17.78° C | 57% | 981.9 hPa | - | 2.24 m/s, 152° | - | - |
| 1778025661 | 17.78° C | 56% | 982 hPa | - | 2.24 m/s, 149° | - | - |
| 1778025420 | 17.78° C | 56% | 982 hPa | - | 2.24 m/s, 163° | - | - |
| 1778025177 | 17.78° C | 56% | 982 hPa | - | 2.68 m/s, 165° | - | - |
| 1778024937 | 17.78° C | 55% | 982 hPa | - | 2.24 m/s, 141° | - | - |
| 1778024697 | 17.78° C | 55% | 982.1 hPa | - | 2.24 m/s, 142° | - | - |
| 1778024457 | 17.78° C | 55% | 982.1 hPa | - | 2.24 m/s, 150° | - | - |
* Rain since midnight (hover to see other rain measurements)
** Current wind speed in m/s (hover to see current wind gust speed)